This is the latest recevied weather packets stored in our database for station/object IW4DZV-13. If no packets are shown the sender has not sent any weather packets the latest 10 day(s).
| Time | Temp. | Humidity | Pressure | Rain* | Wind** | Luminosity | Snow |
|---|---|---|---|---|---|---|---|
| 1777222839 | 23.33° C | 48% | 1014.7 hPa | 0 mm | - | 54 W/m² | - |
| 1777221939 | 23.89° C | 47% | 1014.8 hPa | 0 mm | - | 56 W/m² | - |
| 1777221038 | 23.89° C | 47% | 1014.8 hPa | 0 mm | - | 56 W/m² | - |
| 1777220141 | 24.44° C | 46% | 1014.8 hPa | 0 mm | - | 51 W/m² | - |
| 1777219237 | 25° C | 45% | 1014.9 hPa | 0 mm | - | 278 W/m² | - |
| 1777218337 | 25° C | 44% | 1014.9 hPa | 0 mm | - | 322 W/m² | - |
| 1777217438 | 25° C | 44% | 1014.9 hPa | 0 mm | - | 366 W/m² | - |
| 1777216535 | 24.44° C | 46% | 1015 hPa | 0 mm | - | 67 W/m² | - |
| 1777215642 | 24.44° C | 44% | 1015.1 hPa | 0 mm | - | 107 W/m² | - |
| 1777214739 | 25° C | 46% | 1015.2 hPa | 0 mm | - | 74 W/m² | - |
| 1777213833 | 24.44° C | 47% | 1015.2 hPa | 0 mm | - | 84 W/m² | - |
| 1777212935 | 24.44° C | 47% | 1015.3 hPa | 0 mm | - | 76 W/m² | - |
| 1777212031 | 24.44° C | 48% | 1015.3 hPa | 0 mm | - | 100 W/m² | - |
| 1777211132 | 25° C | 47% | 1015.5 hPa | 0 mm | - | 163 W/m² | - |
| 1777210231 | 25° C | 51% | 1015.5 hPa | 0 mm | - | 148 W/m² | - |
| 1777209330 | 25.56° C | 49% | 1015.8 hPa | 0 mm | - | 608 W/m² | - |
| 1777208432 | 25° C | 50% | 1016 hPa | 0 mm | - | 635 W/m² | - |
| 1777207529 | 25° C | 48% | 1016.2 hPa | 0 mm | - | 728 W/m² | - |
| 1777206628 | 25.56° C | 51% | 1016.2 hPa | 0 mm | - | 747 W/m² | - |
| 1777205727 | 25° C | 53% | 1016.3 hPa | 0 mm | - | 768 W/m² | - |
| 1777204825 | 24.44° C | 52% | 1016.3 hPa | 0 mm | - | 784 W/m² | - |
| 1777203924 | 24.44° C | 48% | 1016.3 hPa | 0 mm | - | 798 W/m² | - |
| 1777203038 | 24.44° C | 50% | 1016.4 hPa | 0 mm | - | 805 W/m² | - |
| 1777202121 | 24.44° C | 50% | 1016.4 hPa | 0 mm | - | 807 W/m² | - |
| 1777201219 | 23.89° C | 53% | 1016.5 hPa | 0 mm | - | 810 W/m² | - |
* Rain since midnight (hover to see other rain measurements)
** Current wind speed in m/s (hover to see current wind gust speed)